STARLINK-1993 (47588 NORAD) Tracking and Keplerian Element Data
This shows tracking and keplerian element data for the satellite.
Feedback or suggestion? Click here.
Element | Value |
Catalog | 47588 |
Name | STARLINK-1993 |
Epoch Orbit | 183 |
Epoch Day | 56.91667824 |
Epoch Year | 2021 |
RAAN | 17.6313 |
Inclination | 53.0533 |
Eccentricity | 0.0001293 |
Argument of Perigee | 80.6095 |
Mean Anonmoly | 290.0904 |
Mean Motion | 15.6276361 |
Decay Rate | -0.00050987 |
L1 | 1 47588U 21009AS 21056.91667824 -.00050987 00000-0 -55428-3 0 9999 |
L2 | 2 47588 53.0533 17.6313 0001293 80.6095 290.0904 15.62763610 1830 |
Live tracking and technical data element details for STARLINK-1993 (NORAD 47588). STARLINK-1993 can be tracked NOW for your location showing map with azimuth and elevation plus other details from your city location.
Track the satellite on the map from your city or location and see movement details for azimuth, elevation, latitude, longitude, range, height, and movement on the map or in text.
IsCatalogInMostPopularTable: catalog: 47588, numindb: 1
Update: records affected: 1
GetName: 47588 STARLINK-1993
Hit Count: updated at: Fri, 26 Feb 2021 09:08:52 GMT